Location: Anjeux
(47.8815°N, 6.2076°E)
Time: 18:28:09
(UTC+00:00)

METEOR-M - Pass Details

Date: 05 March 2021
Orbit: 815 x 820 km, 98.5° (Epoch: 15 April)

Event Time Altitude Azimuth Distance (km) Brightness Sun altitude
Rises 04:31:39 0° 12° (NNE) 3,358 7.6 -17.0°
Reaches altitude 10° 04:34:01 10° 10° (N) 2,420 6.8 -16.6°
Maximum altitude 04:39:21 72° 288° (WNW) 861 4.0 -15.7°
Drops below altitude 10° 04:44:38 10° 205° (SSW) 2,402 6.3 -14.8°
Sets 04:46:58 0° 203° (SSW) 3,329 7.0 -14.4°
